owner,sensor,date,latitude,longitude,vertical_datum,wind_speed,wind_to_direction,wind_speed_of_gust,qcFlag 
TCOON,ioos:station:TCOON:146:1,2014-06-01T00:00:00Z,28.1324,-97.0345,0.0,4.4,126.0,5.6,'1111122,1111122,1111122' 
TCOON,ioos:station:TCOON:146:1,2014-06-01T01:00:00Z,28.1324,-97.0345,0.0,4.9,125.0,6.2,'1111122,1111122,1111122' 
TCOON,ioos:station:TCOON:146:1,2014-06-01T02:00:00Z,28.1324,-97.0345,0.0,4.0,127.0,5.2,'1111122,1111122,1111122' 
TCOON,ioos:station:TCOON:146:1,2014-06-01T03:00:00Z,28.1324,-97.0345,0.0,4.9,116.0,6.1,'1111122,1111122,1111122' 
TCOON,ioos:station:TCOON:146:1,2014-06-01T04:00:00Z,28.1324,-97.0345,0.0,4.7,131.0,5.6,'1111122,1111122,1111122' 
TCOON,ioos:station:TCOON:146:1,2014-06-01T05:00:00Z,28.1324,-97.0345,0.0,5.5,128.0,6.9,'1111122,1111122,1111122' 
TCOON,ioos:station:TCOON:146:1,2014-06-01T06:30:00Z,28.1324,-97.0345,0.0,4.8,148.0,5.8,'1111122,1111122,1111122' 
TCOON,ioos:station:TCOON:146:1,2014-06-01T07:00:00Z,28.1324,-97.0345,0.0,4.7,146.0,5.6,'1111122,1111122,1111122' 
TCOON,ioos:station:TCOON:146:1,2014-06-01T08:00:00Z,28.1324,-97.0345,0.0,4.0,142.0,5.1,'1111122,1111122,1111122' 
TCOON,ioos:station:TCOON:146:1,2014-06-01T09:00:00Z,28.1324,-97.0345,0.0,3.0,132.0,3.9,'1111122,1111122,1111122' 
TCOON,ioos:station:TCOON:146:1,2014-06-01T10:00:00Z,28.1324,-97.0345,0.0,3.0,129.0,4.2,'1111122,1111122,1111122' 
TCOON,ioos:station:TCOON:146:1,2014-06-01T11:00:00Z,28.1324,-97.0345,0.0,1.8,119.0,2.5,'1111122,1111122,1111122' 
TCOON,ioos:station:TCOON:146:1,2014-06-01T12:00:00Z,28.1324,-97.0345,0.0,1.9,124.0,2.6,'1111122,1111122,1111122' 
TCOON,ioos:station:TCOON:146:1,2014-06-01T13:00:00Z,28.1324,-97.0345,0.0,2.7,78.0,3.3,'1111122,1111122,1111122' 
TCOON,ioos:station:TCOON:146:1,2014-06-01T14:00:00Z,28.1324,-97.0345,0.0,2.9,96.0,3.8,'1111122,1111122,1111122' 
TCOON,ioos:station:TCOON:146:1,2014-06-01T15:00:00Z,28.1324,-97.0345,0.0,1.6,116.0,2.2,'1111122,1111122,1111122' 
TCOON,ioos:station:TCOON:146:1,2014-06-01T16:00:00Z,28.1324,-97.0345,0.0,3.3,112.0,4.4,'1111122,1111122,1111122' 
TCOON,ioos:station:TCOON:146:1,2014-06-01T17:00:00Z,28.1324,-97.0345,0.0,5.1,107.0,5.9,'1111122,1111122,1111122' 
TCOON,ioos:station:TCOON:146:1,2014-06-01T18:00:00Z,28.1324,-97.0345,0.0,6.0,100.0,6.8,'1111122,1111122,1111122' 
TCOON,ioos:station:TCOON:146:1,2014-06-01T19:00:00Z,28.1324,-97.0345,0.0,5.4,110.0,6.4,'1111122,1111122,1111122' 
TCOON,ioos:station:TCOON:146:1,2014-06-01T20:00:00Z,28.1324,-97.0345,0.0,5.8,117.0,7.1,'1111122,1111122,1111122' 
TCOON,ioos:station:TCOON:146:1,2014-06-01T21:00:00Z,28.1324,-97.0345,0.0,5.2,115.0,6.7,'1111122,1111122,1111122' 
TCOON,ioos:station:TCOON:146:1,2014-06-01T22:00:00Z,28.1324,-97.0345,0.0,6.4,111.0,7.9,'1111122,1111122,1111122' 
TCOON,ioos:station:TCOON:146:1,2014-06-01T23:00:00Z,28.1324,-97.0345,0.0,6.9,109.0,8.0,'1111122,1111122,1111122' 
TCOON,ioos:station:TCOON:146:1,2014-06-02T00:00:00Z,28.1324,-97.0345,0.0,7.8,108.0,9.6,'1111122,1111122,1111122' 
TCOON,ioos:station:TCOON:146:1,2014-06-02T01:00:00Z,28.1324,-97.0345,0.0,7.4,108.0,8.9,'1111122,1111122,1111122' 
TCOON,ioos:station:TCOON:146:1,2014-06-02T02:00:00Z,28.1324,-97.0345,0.0,7.1,104.0,8.8,'1111122,1111122,1111122' 
TCOON,ioos:station:TCOON:146:1,2014-06-02T03:00:00Z,28.1324,-97.0345,0.0,6.5,104.0,8.0,'1111122,1111122,1111122' 
TCOON,ioos:station:TCOON:146:1,2014-06-02T04:00:00Z,28.1324,-97.0345,0.0,6.6,111.0,8.0,'1111122,1111122,1111122' 
TCOON,ioos:station:TCOON:146:1,2014-06-02T05:00:00Z,28.1324,-97.0345,0.0,7.3,121.0,9.0,'1111122,1111122,1111122' 
TCOON,ioos:station:TCOON:146:1,2014-06-02T07:00:00Z,28.1324,-97.0345,0.0,7.6,132.0,9.0,'1111122,1111122,1111122' 
TCOON,ioos:station:TCOON:146:1,2014-06-02T08:00:00Z,28.1324,-97.0345,0.0,6.5,139.0,7.7,'1111122,1111122,1111122' 
TCOON,ioos:station:TCOON:146:1,2014-06-02T09:00:00Z,28.1324,-97.0345,0.0,6.3,136.0,8.0,'1111122,1111122,1111122' 
TCOON,ioos:station:TCOON:146:1,2014-06-02T10:00:00Z,28.1324,-97.0345,0.0,6.7,126.0,7.9,'1111122,1111122,1111122' 
TCOON,ioos:station:TCOON:146:1,2014-06-02T11:00:00Z,28.1324,-97.0345,0.0,6.4,122.0,7.7,'1111122,1111122,1111122' 
TCOON,ioos:station:TCOON:146:1,2014-06-02T12:00:00Z,28.1324,-97.0345,0.0,6.5,122.0,8.0,'1111122,1111122,1111122' 
TCOON,ioos:station:TCOON:146:1,2014-06-02T13:00:00Z,28.1324,-97.0345,0.0,6.7,115.0,7.6,'1111122,1111122,1111122' 
TCOON,ioos:station:TCOON:146:1,2014-06-02T14:00:00Z,28.1324,-97.0345,0.0,6.3,120.0,7.5,'1111122,1111122,1111122' 
TCOON,ioos:station:TCOON:146:1,2014-06-02T15:00:00Z,28.1324,-97.0345,0.0,5.7,122.0,7.0,'1111122,1111122,1111122' 
TCOON,ioos:station:TCOON:146:1,2014-06-02T16:00:00Z,28.1324,-97.0345,0.0,6.3,119.0,7.6,'1111122,1111122,1111122' 
TCOON,ioos:station:TCOON:146:1,2014-06-02T17:00:00Z,28.1324,-97.0345,0.0,6.0,115.0,7.2,'1111122,1111122,1111122' 
TCOON,ioos:station:TCOON:146:1,2014-06-02T18:00:00Z,28.1324,-97.0345,0.0,5.9,117.0,7.6,'1111122,1111122,1111122' 
TCOON,ioos:station:TCOON:146:1,2014-06-02T19:00:00Z,28.1324,-97.0345,0.0,5.5,102.0,6.6,'1111122,1111122,1111122' 
TCOON,ioos:station:TCOON:146:1,2014-06-02T20:00:00Z,28.1324,-97.0345,0.0,6.8,99.0,8.2,'1111122,1111122,1111122' 
TCOON,ioos:station:TCOON:146:1,2014-06-02T21:00:00Z,28.1324,-97.0345,0.0,6.2,101.0,7.5,'1111122,1111122,1111122' 
TCOON,ioos:station:TCOON:146:1,2014-06-02T22:00:00Z,28.1324,-97.0345,0.0,6.7,106.0,8.2,'1111122,1111122,1111122' 
TCOON,ioos:station:TCOON:146:1,2014-06-02T23:00:00Z,28.1324,-97.0345,0.0,5.9,103.0,7.3,'1111122,1111122,1111122' 
TCOON,ioos:station:TCOON:146:1,2014-06-03T00:00:00Z,28.1324,-97.0345,0.0,6.4,106.0,7.9,'1111122,1111122,1111122' 
TCOON,ioos:station:TCOON:146:1,2014-06-03T01:00:00Z,28.1324,-97.0345,0.0,7.0,105.0,8.5,'1111122,1111122,1111122' 
TCOON,ioos:station:TCOON:146:1,2014-06-03T02:00:00Z,28.1324,-97.0345,0.0,8.4,102.0,10.0,'1111122,1111122,1111122' 
TCOON,ioos:station:TCOON:146:1,2014-06-03T03:00:00Z,28.1324,-97.0345,0.0,7.3,104.0,8.8,'1111122,1111122,1111122' 
TCOON,ioos:station:TCOON:146:1,2014-06-03T04:00:00Z,28.1324,-97.0345,0.0,6.8,104.0,8.6,'1111122,1111122,1111122' 
TCOON,ioos:station:TCOON:146:1,2014-06-03T05:00:00Z,28.1324,-97.0345,0.0,6.6,107.0,7.9,'1111122,1111122,1111122' 
TCOON,ioos:station:TCOON:146:1,2014-06-03T06:30:00Z,28.1324,-97.0345,0.0,5.8,106.0,7.2,'1111122,1111122,1111122' 
TCOON,ioos:station:TCOON:146:1,2014-06-03T07:00:00Z,28.1324,-97.0345,0.0,6.0,108.0,8.1,'1111122,1111122,1111122' 
TCOON,ioos:station:TCOON:146:1,2014-06-03T08:00:00Z,28.1324,-97.0345,0.0,7.1,125.0,8.2,'1111122,1111122,1111122' 
TCOON,ioos:station:TCOON:146:1,2014-06-03T09:00:00Z,28.1324,-97.0345,0.0,6.0,125.0,7.1,'1111122,1111122,1111122' 
TCOON,ioos:station:TCOON:146:1,2014-06-03T10:00:00Z,28.1324,-97.0345,0.0,4.7,121.0,5.5,'1111122,1111122,1111122' 
TCOON,ioos:station:TCOON:146:1,2014-06-03T11:00:00Z,28.1324,-97.0345,0.0,4.4,111.0,6.1,'1111122,1111122,1111122' 
TCOON,ioos:station:TCOON:146:1,2014-06-03T12:00:00Z,28.1324,-97.0345,0.0,4.4,114.0,5.4,'1111122,1111122,1111122' 
TCOON,ioos:station:TCOON:146:1,2014-06-03T13:00:00Z,28.1324,-97.0345,0.0,3.3,95.0,4.5,'1111122,1111122,1111122' 
TCOON,ioos:station:TCOON:146:1,2014-06-03T14:00:00Z,28.1324,-97.0345,0.0,4.2,95.0,4.9,'1111122,1111122,1111122' 
TCOON,ioos:station:TCOON:146:1,2014-06-03T15:00:00Z,28.1324,-97.0345,0.0,4.5,97.0,5.5,'1111122,1111122,1111122' 
TCOON,ioos:station:TCOON:146:1,2014-06-03T16:00:00Z,28.1324,-97.0345,0.0,4.5,106.0,5.4,'1111122,1111122,1111122' 
TCOON,ioos:station:TCOON:146:1,2014-06-03T17:00:00Z,28.1324,-97.0345,0.0,5.5,108.0,6.7,'1111122,1111122,1111122' 
TCOON,ioos:station:TCOON:146:1,2014-06-03T18:00:00Z,28.1324,-97.0345,0.0,6.4,127.0,7.7,'1111122,1111122,1111122' 
TCOON,ioos:station:TCOON:146:1,2014-06-03T19:00:00Z,28.1324,-97.0345,0.0,6.0,118.0,7.4,'1111122,1111122,1111122' 
TCOON,ioos:station:TCOON:146:1,2014-06-03T20:00:00Z,28.1324,-97.0345,0.0,5.5,115.0,7.3,'1111122,1111122,1111122' 
TCOON,ioos:station:TCOON:146:1,2014-06-03T21:00:00Z,28.1324,-97.0345,0.0,6.5,120.0,8.4,'1111122,1111122,1111122' 
TCOON,ioos:station:TCOON:146:1,2014-06-03T22:00:00Z,28.1324,-97.0345,0.0,7.3,123.0,8.4,'1111122,1111122,1111122' 
TCOON,ioos:station:TCOON:146:1,2014-06-03T23:00:00Z,28.1324,-97.0345,0.0,6.9,119.0,8.3,'1111122,1111122,1111122' 
TCOON,ioos:station:TCOON:146:1,2014-06-04T00:00:00Z,28.1324,-97.0345,0.0,7.4,121.0,8.8,'1111122,1111122,1111122' 
TCOON,ioos:station:TCOON:146:1,2014-06-04T01:00:00Z,28.1324,-97.0345,0.0,6.5,119.0,8.1,'1111122,1111122,1111122' 
TCOON,ioos:station:TCOON:146:1,2014-06-04T02:00:00Z,28.1324,-97.0345,0.0,6.6,118.0,8.1,'1111122,1111122,1111122' 
TCOON,ioos:station:TCOON:146:1,2014-06-04T03:00:00Z,28.1324,-97.0345,0.0,6.1,123.0,7.4,'1111122,1111122,1111122' 
TCOON,ioos:station:TCOON:146:1,2014-06-04T04:00:00Z,28.1324,-97.0345,0.0,5.9,128.0,6.9,'1111122,1111122,1111122' 
TCOON,ioos:station:TCOON:146:1,2014-06-04T05:00:00Z,28.1324,-97.0345,0.0,6.4,132.0,7.7,'1111122,1111122,1111122' 
TCOON,ioos:station:TCOON:146:1,2014-06-04T07:00:00Z,28.1324,-97.0345,0.0,7.2,148.0,8.5,'1111122,1111122,1111122' 
TCOON,ioos:station:TCOON:146:1,2014-06-04T08:00:00Z,28.1324,-97.0345,0.0,6.4,140.0,8.0,'1111122,1111122,1111122' 
TCOON,ioos:station:TCOON:146:1,2014-06-04T09:00:00Z,28.1324,-97.0345,0.0,6.4,144.0,7.9,'1111122,1111122,1111122' 
TCOON,ioos:station:TCOON:146:1,2014-06-04T10:00:00Z,28.1324,-97.0345,0.0,6.8,148.0,8.1,'1111122,1111122,1111122' 
TCOON,ioos:station:TCOON:146:1,2014-06-04T11:00:00Z,28.1324,-97.0345,0.0,5.6,146.0,6.4,'1111122,1111122,1111122' 
TCOON,ioos:station:TCOON:146:1,2014-06-04T12:00:00Z,28.1324,-97.0345,0.0,5.2,150.0,6.2,'1111122,1111122,1111122' 
TCOON,ioos:station:TCOON:146:1,2014-06-04T13:00:00Z,28.1324,-97.0345,0.0,5.2,131.0,6.2,'1111122,1111122,1111122' 
TCOON,ioos:station:TCOON:146:1,2014-06-04T14:00:00Z,28.1324,-97.0345,0.0,4.8,131.0,6.0,'1111122,1111122,1111122' 
TCOON,ioos:station:TCOON:146:1,2014-06-04T15:00:00Z,28.1324,-97.0345,0.0,4.9,119.0,5.8,'1111122,1111122,1111122' 
TCOON,ioos:station:TCOON:146:1,2014-06-04T16:00:00Z,28.1324,-97.0345,0.0,5.6,126.0,7.1,'1111122,1111122,1111122' 
TCOON,ioos:station:TCOON:146:1,2014-06-04T17:00:00Z,28.1324,-97.0345,0.0,5.0,123.0,6.2,'1111122,1111122,1111122' 
TCOON,ioos:station:TCOON:146:1,2014-06-04T18:00:00Z,28.1324,-97.0345,0.0,4.7,116.0,5.5,'1111122,1111122,1111122' 
TCOON,ioos:station:TCOON:146:1,2014-06-04T19:00:00Z,28.1324,-97.0345,0.0,5.2,124.0,6.4,'1111122,1111122,1111122' 
TCOON,ioos:station:TCOON:146:1,2014-06-04T20:00:00Z,28.1324,-97.0345,0.0,5.5,123.0,6.9,'1111122,1111122,1111122' 
TCOON,ioos:station:TCOON:146:1,2014-06-04T21:00:00Z,28.1324,-97.0345,0.0,6.6,125.0,8.2,'1111122,1111122,1111122' 
TCOON,ioos:station:TCOON:146:1,2014-06-04T22:00:00Z,28.1324,-97.0345,0.0,7.2,123.0,8.9,'1111122,1111122,1111122' 
TCOON,ioos:station:TCOON:146:1,2014-06-04T23:00:00Z,28.1324,-97.0345,0.0,7.7,126.0,9.0,'1111122,1111122,1111122' 
TCOON,ioos:station:TCOON:146:1,2014-06-05T00:00:00Z,28.1324,-97.0345,0.0,7.2,125.0,8.6,'1111122,1111122,1111122' 
TCOON,ioos:station:TCOON:146:1,2014-06-05T01:00:00Z,28.1324,-97.0345,0.0,7.4,123.0,9.2,'1111122,1111122,1111122' 
TCOON,ioos:station:TCOON:146:1,2014-06-05T02:00:00Z,28.1324,-97.0345,0.0,8.8,123.0,10.5,'1111122,1111122,1111122' 
TCOON,ioos:station:TCOON:146:1,2014-06-05T03:00:00Z,28.1324,-97.0345,0.0,7.7,120.0,9.4,'1111122,1111122,1111122' 
TCOON,ioos:station:TCOON:146:1,2014-06-05T04:00:00Z,28.1324,-97.0345,0.0,8.3,129.0,10.1,'1111122,1111122,1111122' 
TCOON,ioos:station:TCOON:146:1,2014-06-05T05:00:00Z,28.1324,-97.0345,0.0,7.8,141.0,8.9,'1111122,1111122,1111122' 
TCOON,ioos:station:TCOON:146:1,2014-06-05T06:30:00Z,28.1324,-97.0345,0.0,9.1,148.0,10.9,'1111122,1111122,1111122' 
TCOON,ioos:station:TCOON:146:1,2014-06-05T07:00:00Z,28.1324,-97.0345,0.0,8.3,151.0,9.8,'1111122,1111122,1111122' 
TCOON,ioos:station:TCOON:146:1,2014-06-05T08:00:00Z,28.1324,-97.0345,0.0,8.3,159.0,10.1,'1111122,1111122,1111122' 
TCOON,ioos:station:TCOON:146:1,2014-06-05T09:00:00Z,28.1324,-97.0345,0.0,7.6,163.0,9.1,'1111122,1111122,1111122' 
TCOON,ioos:station:TCOON:146:1,2014-06-05T10:00:00Z,28.1324,-97.0345,0.0,6.5,164.0,8.3,'1111122,1111122,1111122' 
TCOON,ioos:station:TCOON:146:1,2014-06-05T11:00:00Z,28.1324,-97.0345,0.0,6.6,164.0,8.4,'1111122,1111122,1111122' 
TCOON,ioos:station:TCOON:146:1,2014-06-05T12:00:00Z,28.1324,-97.0345,0.0,6.0,172.0,7.1,'1111122,1111122,1111122' 
TCOON,ioos:station:TCOON:146:1,2014-06-05T13:00:00Z,28.1324,-97.0345,0.0,5.3,166.0,7.3,'1111122,1111122,1111122' 
TCOON,ioos:station:TCOON:146:1,2014-06-05T14:00:00Z,28.1324,-97.0345,0.0,8.3,152.0,9.9,'1111122,1111122,1111122' 
TCOON,ioos:station:TCOON:146:1,2014-06-05T15:00:00Z,28.1324,-97.0345,0.0,8.3,146.0,10.0,'1111122,1111122,1111122' 
TCOON,ioos:station:TCOON:146:1,2014-06-05T16:00:00Z,28.1324,-97.0345,0.0,8.6,150.0,10.0,'1111122,1111122,1111122' 
TCOON,ioos:station:TCOON:146:1,2014-06-05T17:00:00Z,28.1324,-97.0345,0.0,7.9,147.0,9.5,'1111122,1111122,1111122' 
TCOON,ioos:station:TCOON:146:1,2014-06-05T18:00:00Z,28.1324,-97.0345,0.0,7.9,147.0,9.3,'1111122,1111122,1111122' 
TCOON,ioos:station:TCOON:146:1,2014-06-05T19:00:00Z,28.1324,-97.0345,0.0,7.6,144.0,9.3,'1111122,1111122,1111122' 
TCOON,ioos:station:TCOON:146:1,2014-06-05T20:00:00Z,28.1324,-97.0345,0.0,8.0,143.0,9.7,'1111122,1111122,1111122' 
TCOON,ioos:station:TCOON:146:1,2014-06-05T21:00:00Z,28.1324,-97.0345,0.0,8.2,138.0,10.2,'1111122,1111122,1111122' 
TCOON,ioos:station:TCOON:146:1,2014-06-05T22:00:00Z,28.1324,-97.0345,0.0,8.7,139.0,10.3,'1111122,1111122,1111122' 
TCOON,ioos:station:TCOON:146:1,2014-06-05T23:00:00Z,28.1324,-97.0345,0.0,8.6,145.0,10.5,'1111122,1111122,1111122' 
TCOON,ioos:station:TCOON:146:1,2014-06-06T00:00:00Z,28.1324,-97.0345,0.0,7.8,140.0,9.1,'1111122,1111122,1111122' 
TCOON,ioos:station:TCOON:146:1,2014-06-06T01:00:00Z,28.1324,-97.0345,0.0,7.8,129.0,8.9,'1111122,1111122,1111122' 
TCOON,ioos:station:TCOON:146:1,2014-06-06T02:00:00Z,28.1324,-97.0345,0.0,7.6,132.0,9.3,'1111122,1111122,1111122' 
TCOON,ioos:station:TCOON:146:1,2014-06-06T03:00:00Z,28.1324,-97.0345,0.0,8.2,134.0,10.1,'1111122,1111122,1111122' 
TCOON,ioos:station:TCOON:146:1,2014-06-06T04:00:00Z,28.1324,-97.0345,0.0,8.8,139.0,10.6,'1111122,1111122,1111122' 
TCOON,ioos:station:TCOON:146:1,2014-06-06T05:00:00Z,28.1324,-97.0345,0.0,9.3,146.0,11.0,'1111122,1111122,1111122' 
TCOON,ioos:station:TCOON:146:1,2014-06-06T06:30:00Z,28.1324,-97.0345,0.0,9.4,156.0,10.9,'1111122,1111122,1111122' 
TCOON,ioos:station:TCOON:146:1,2014-06-06T07:00:00Z,28.1324,-97.0345,0.0,9.6,154.0,11.5,'1111122,1111122,1111122' 
TCOON,ioos:station:TCOON:146:1,2014-06-06T08:00:00Z,28.1324,-97.0345,0.0,8.3,162.0,10.9,'1111122,1111122,1111122' 
TCOON,ioos:station:TCOON:146:1,2014-06-06T09:00:00Z,28.1324,-97.0345,0.0,7.4,163.0,9.7,'1111122,1111122,1111122' 
TCOON,ioos:station:TCOON:146:1,2014-06-06T10:00:00Z,28.1324,-97.0345,0.0,7.8,168.0,10.2,'1111122,1111122,1111122' 
TCOON,ioos:station:TCOON:146:1,2014-06-06T11:00:00Z,28.1324,-97.0345,0.0,8.1,162.0,9.9,'1111122,1111122,1111122' 
TCOON,ioos:station:TCOON:146:1,2014-06-06T12:00:00Z,28.1324,-97.0345,0.0,7.6,154.0,9.9,'1111122,1111122,1111122' 
TCOON,ioos:station:TCOON:146:1,2014-06-06T13:00:00Z,28.1324,-97.0345,0.0,7.4,144.0,8.7,'1111122,1111122,1111122' 
TCOON,ioos:station:TCOON:146:1,2014-06-06T14:00:00Z,28.1324,-97.0345,0.0,7.4,140.0,9.1,'1111122,1111122,1111122' 
TCOON,ioos:station:TCOON:146:1,2014-06-06T15:00:00Z,28.1324,-97.0345,0.0,7.5,129.0,9.1,'1111122,1111122,1111122' 
TCOON,ioos:station:TCOON:146:1,2014-06-06T16:00:00Z,28.1324,-97.0345,0.0,7.9,137.0,9.5,'1111122,1111122,1111122' 
TCOON,ioos:station:TCOON:146:1,2014-06-06T17:00:00Z,28.1324,-97.0345,0.0,9.3,142.0,11.3,'1111122,1111122,1111122' 
TCOON,ioos:station:TCOON:146:1,2014-06-06T18:00:00Z,28.1324,-97.0345,0.0,8.0,129.0,9.8,'1111122,1111122,1111122' 
TCOON,ioos:station:TCOON:146:1,2014-06-06T19:00:00Z,28.1324,-97.0345,0.0,7.6,127.0,9.0,'1111122,1111122,1111122' 
TCOON,ioos:station:TCOON:146:1,2014-06-06T20:00:00Z,28.1324,-97.0345,0.0,7.8,122.0,9.9,'1111122,1111122,1111122' 
TCOON,ioos:station:TCOON:146:1,2014-06-06T21:00:00Z,28.1324,-97.0345,0.0,7.4,117.0,9.1,'1111122,1111122,1111122' 
TCOON,ioos:station:TCOON:146:1,2014-06-06T22:00:00Z,28.1324,-97.0345,0.0,7.0,117.0,8.5,'1111122,1111122,1111122' 
TCOON,ioos:station:TCOON:146:1,2014-06-06T23:00:00Z,28.1324,-97.0345,0.0,7.5,121.0,8.8,'1111122,1111122,1111122' 
TCOON,ioos:station:TCOON:146:1,2014-06-07T00:00:00Z,28.1324,-97.0345,0.0,7.5,119.0,8.9,'1111122,1111122,1111122' 
TCOON,ioos:station:TCOON:146:1,2014-06-07T01:00:00Z,28.1324,-97.0345,0.0,7.1,118.0,8.9,'1111122,1111122,1111122' 
TCOON,ioos:station:TCOON:146:1,2014-06-07T02:00:00Z,28.1324,-97.0345,0.0,7.0,119.0,8.5,'1111122,1111122,1111122' 
TCOON,ioos:station:TCOON:146:1,2014-06-07T03:00:00Z,28.1324,-97.0345,0.0,7.6,132.0,9.0,'1111122,1111122,1111122' 
TCOON,ioos:station:TCOON:146:1,2014-06-07T04:00:00Z,28.1324,-97.0345,0.0,8.3,139.0,10.0,'1111122,1111122,1111122' 
TCOON,ioos:station:TCOON:146:1,2014-06-07T05:00:00Z,28.1324,-97.0345,0.0,9.0,141.0,10.5,'1111122,1111122,1111122' 
TCOON,ioos:station:TCOON:146:1,2014-06-07T06:00:00Z,28.1324,-97.0345,0.0,8.9,152.0,10.7,'1111122,1111122,1111122' 
TCOON,ioos:station:TCOON:146:1,2014-06-07T07:00:00Z,28.1324,-97.0345,0.0,9.1,157.0,11.5,'1111122,1111122,1111122' 
TCOON,ioos:station:TCOON:146:1,2014-06-07T08:00:00Z,28.1324,-97.0345,0.0,8.1,155.0,9.7,'1111122,1111122,1111122' 
TCOON,ioos:station:TCOON:146:1,2014-06-07T09:00:00Z,28.1324,-97.0345,0.0,8.6,154.0,10.0,'1111122,1111122,1111122' 
TCOON,ioos:station:TCOON:146:1,2014-06-07T10:00:00Z,28.1324,-97.0345,0.0,8.5,146.0,10.3,'1111122,1111122,1111122' 
TCOON,ioos:station:TCOON:146:1,2014-06-07T11:00:00Z,28.1324,-97.0345,0.0,8.2,142.0,9.6,'1111122,1111122,1111122' 
TCOON,ioos:station:TCOON:146:1,2014-06-07T12:00:00Z,28.1324,-97.0345,0.0,7.5,146.0,8.8,'1111122,1111122,1111122' 
TCOON,ioos:station:TCOON:146:1,2014-06-07T13:00:00Z,28.1324,-97.0345,0.0,7.5,150.0,9.3,'1111122,1111122,1111122' 
TCOON,ioos:station:TCOON:146:1,2014-06-07T14:00:00Z,28.1324,-97.0345,0.0,7.7,146.0,9.1,'1111122,1111122,1111122' 
TCOON,ioos:station:TCOON:146:1,2014-06-07T16:00:00Z,28.1324,-97.0345,0.0,7.3,142.0,8.8,'1111122,1111122,1111122' 
TCOON,ioos:station:TCOON:146:1,2014-06-07T17:00:00Z,28.1324,-97.0345,0.0,7.2,140.0,8.5,'1111122,1111122,1111122' 
TCOON,ioos:station:TCOON:146:1,2014-06-07T18:00:00Z,28.1324,-97.0345,0.0,7.7,142.0,8.7,'1111122,1111122,1111122' 
TCOON,ioos:station:TCOON:146:1,2014-06-07T19:00:00Z,28.1324,-97.0345,0.0,7.6,144.0,9.0,'1111122,1111122,1111122' 
TCOON,ioos:station:TCOON:146:1,2014-06-07T20:00:00Z,28.1324,-97.0345,0.0,7.0,144.0,9.1,'1111122,1111122,1111122' 
TCOON,ioos:station:TCOON:146:1,2014-06-07T21:00:00Z,28.1324,-97.0345,0.0,7.2,134.0,8.2,'1111122,1111122,1111122' 
TCOON,ioos:station:TCOON:146:1,2014-06-07T22:00:00Z,28.1324,-97.0345,0.0,7.7,131.0,8.9,'1111122,1111122,1111122' 
TCOON,ioos:station:TCOON:146:1,2014-06-07T23:00:00Z,28.1324,-97.0345,0.0,8.2,127.0,9.6,'1111122,1111122,1111122' 
TCOON,ioos:station:TCOON:146:1,2014-06-08T00:00:00Z,28.1324,-97.0345,0.0,8.2,127.0,9.9,'1111122,1111122,1111122' 
TCOON,ioos:station:TCOON:146:1,2014-06-08T01:00:00Z,28.1324,-97.0345,0.0,8.1,125.0,9.7,'1111122,1111122,1111122' 
TCOON,ioos:station:TCOON:146:1,2014-06-08T02:00:00Z,28.1324,-97.0345,0.0,8.1,131.0,9.9,'1111122,1111122,1111122' 
TCOON,ioos:station:TCOON:146:1,2014-06-08T03:00:00Z,28.1324,-97.0345,0.0,9.3,135.0,11.3,'1111122,1111122,1111122' 
TCOON,ioos:station:TCOON:146:1,2014-06-08T04:30:00Z,28.1324,-97.0345,0.0,10.3,137.0,12.3,'1111122,1111122,1111122' 
TCOON,ioos:station:TCOON:146:1,2014-06-08T05:00:00Z,28.1324,-97.0345,0.0,9.5,142.0,11.4,'1111122,1111122,1111122' 
TCOON,ioos:station:TCOON:146:1,2014-06-08T06:30:00Z,28.1324,-97.0345,0.0,10.2,146.0,12.2,'1111122,1111122,1111122' 
TCOON,ioos:station:TCOON:146:1,2014-06-08T07:00:00Z,28.1324,-97.0345,0.0,10.3,147.0,12.2,'1111122,1111122,1111122' 
TCOON,ioos:station:TCOON:146:1,2014-06-08T08:00:00Z,28.1324,-97.0345,0.0,10.5,145.0,13.0,'1111122,1111122,1111122' 
TCOON,ioos:station:TCOON:146:1,2014-06-08T09:00:00Z,28.1324,-97.0345,0.0,10.8,145.0,13.2,'1111122,1111122,1111122' 
TCOON,ioos:station:TCOON:146:1,2014-06-08T10:00:00Z,28.1324,-97.0345,0.0,9.5,142.0,11.5,'1111122,1111122,1111122' 
TCOON,ioos:station:TCOON:146:1,2014-06-08T11:00:00Z,28.1324,-97.0345,0.0,9.7,142.0,11.1,'1111122,1111122,1111122' 
TCOON,ioos:station:TCOON:146:1,2014-06-08T12:00:00Z,28.1324,-97.0345,0.0,9.1,140.0,11.1,'1111122,1111122,1111122' 
TCOON,ioos:station:TCOON:146:1,2014-06-08T13:00:00Z,28.1324,-97.0345,0.0,9.2,139.0,11.2,'1111122,1111122,1111122' 
TCOON,ioos:station:TCOON:146:1,2014-06-08T14:00:00Z,28.1324,-97.0345,0.0,9.2,140.0,10.9,'1111122,1111122,1111122' 
TCOON,ioos:station:TCOON:146:1,2014-06-08T15:00:00Z,28.1324,-97.0345,0.0,9.0,143.0,11.2,'1111122,1111122,1111122' 
TCOON,ioos:station:TCOON:146:1,2014-06-08T16:00:00Z,28.1324,-97.0345,0.0,8.6,148.0,10.4,'1111122,1111122,1111122' 
TCOON,ioos:station:TCOON:146:1,2014-06-08T17:00:00Z,28.1324,-97.0345,0.0,8.1,145.0,9.5,'1111122,1111122,1111122' 
TCOON,ioos:station:TCOON:146:1,2014-06-08T18:00:00Z,28.1324,-97.0345,0.0,7.8,149.0,9.5,'1111122,1111122,1111122' 
TCOON,ioos:station:TCOON:146:1,2014-06-08T19:00:00Z,28.1324,-97.0345,0.0,7.8,149.0,9.3,'1111122,1111122,1111122' 
TCOON,ioos:station:TCOON:146:1,2014-06-08T20:00:00Z,28.1324,-97.0345,0.0,7.7,142.0,9.5,'1111122,1111122,1111122' 
TCOON,ioos:station:TCOON:146:1,2014-06-08T21:00:00Z,28.1324,-97.0345,0.0,8.0,135.0,9.5,'1111122,1111122,1111122' 
TCOON,ioos:station:TCOON:146:1,2014-06-08T22:00:00Z,28.1324,-97.0345,0.0,8.4,130.0,10.6,'1111122,1111122,1111122' 
TCOON,ioos:station:TCOON:146:1,2014-06-08T23:00:00Z,28.1324,-97.0345,0.0,8.8,133.0,10.6,'1111122,1111122,1111122' 
TCOON,ioos:station:TCOON:146:1,2014-06-09T00:00:00Z,28.1324,-97.0345,0.0,9.6,140.0,11.2,'1111122,1111122,1111122' 
TCOON,ioos:station:TCOON:146:1,2014-06-09T01:00:00Z,28.1324,-97.0345,0.0,10.6,138.0,12.6,'1111122,1111122,1111122' 
TCOON,ioos:station:TCOON:146:1,2014-06-09T02:00:00Z,28.1324,-97.0345,0.0,10.9,140.0,13.2,'1111122,1111122,1111122' 
TCOON,ioos:station:TCOON:146:1,2014-06-09T03:00:00Z,28.1324,-97.0345,0.0,10.0,150.0,12.4,'1111122,1111122,1111122' 
TCOON,ioos:station:TCOON:146:1,2014-06-09T04:00:00Z,28.1324,-97.0345,0.0,9.1,148.0,10.7,'1111122,1111122,1111122' 
TCOON,ioos:station:TCOON:146:1,2014-06-09T05:00:00Z,28.1324,-97.0345,0.0,8.0,153.0,9.5,'1111122,1111122,1111122' 
TCOON,ioos:station:TCOON:146:1,2014-06-09T06:30:00Z,28.1324,-97.0345,0.0,7.5,158.0,9.5,'1111122,1111122,1111122' 
TCOON,ioos:station:TCOON:146:1,2014-06-09T07:00:00Z,28.1324,-97.0345,0.0,8.6,153.0,10.5,'1111122,1111122,1111122' 
TCOON,ioos:station:TCOON:146:1,2014-06-09T08:00:00Z,28.1324,-97.0345,0.0,9.3,154.0,11.7,'1111122,1111122,1111122' 
TCOON,ioos:station:TCOON:146:1,2014-06-09T09:00:00Z,28.1324,-97.0345,0.0,9.8,160.0,12.4,'1111122,1111122,1111122' 
TCOON,ioos:station:TCOON:146:1,2014-06-09T10:00:00Z,28.1324,-97.0345,0.0,10.5,158.0,12.8,'1111122,1111122,1111122' 
TCOON,ioos:station:TCOON:146:1,2014-06-09T11:00:00Z,28.1324,-97.0345,0.0,9.6,157.0,12.0,'1111122,1111122,1111122' 
TCOON,ioos:station:TCOON:146:1,2014-06-09T12:00:00Z,28.1324,-97.0345,0.0,10.5,156.0,13.9,'1111122,1111122,1111122' 
TCOON,ioos:station:TCOON:146:1,2014-06-09T13:00:00Z,28.1324,-97.0345,0.0,9.2,168.0,11.2,'1111122,1111122,1111122' 
TCOON,ioos:station:TCOON:146:1,2014-06-09T14:00:00Z,28.1324,-97.0345,0.0,10.3,161.0,13.1,'1111122,1111122,1111122' 
TCOON,ioos:station:TCOON:146:1,2014-06-09T15:00:00Z,28.1324,-97.0345,0.0,10.1,163.0,13.7,'1111122,1111122,1111122' 
TCOON,ioos:station:TCOON:146:1,2014-06-09T16:00:00Z,28.1324,-97.0345,0.0,8.5,159.0,10.7,'1111122,1111122,1111122' 
TCOON,ioos:station:TCOON:146:1,2014-06-09T17:00:00Z,28.1324,-97.0345,0.0,8.7,160.0,12.2,'1111122,1111122,1111122' 
TCOON,ioos:station:TCOON:146:1,2014-06-09T18:00:00Z,28.1324,-97.0345,0.0,10.3,157.0,12.4,'1111122,1111122,1111122' 
TCOON,ioos:station:TCOON:146:1,2014-06-09T19:00:00Z,28.1324,-97.0345,0.0,8.0,154.0,10.3,'1111122,1111122,1111122' 